Flag for Peru Weather past 2 weeks in Chiclayo, Lambayeque, Peru

Now
72 °F

Partly sunny.


Feels Like: 72 °F
Forecast: 65 / 84 °F
Wind: 12 mph from Southwest

Location: Chiclayo Airport


UV Index: 7 (High)

Visibility: N/A


Pressure: 29.86 "Hg

Humidity: 78%

Dew point: 64 °F

Location of ChiclayoLocation

Historic Weather in Chiclayo

°F

Chiclayo temperature yesterday

Maximum temperature yesterday: 88 °F (at 1:00 PM)
Minimum temperature yesterday: 66 °F (at 4:00 AM)
Average temperature yesterday: 75 °F

Past Weeks' High & Low Weather Summary

 TemperatureHumidityPressure
High88 °F (Apr 9, 11:00 AM)94% (Apr 7, 6:00 AM)29.98 "Hg (Apr 7, 6:00 AM)
Low63 °F (Apr 11, 6:00 AM)46% (Apr 9, 1:00 PM)29.77 "Hg (Apr 5, 4:00 PM)
Average73 °F74%29.86 "Hg
* Reported Apr 3 8:00 AM — Apr 18 8:00 AM, Chiclayo, Weather by CustomWeather, © 2014

Note: Actual official high and low records may vary slightly from our data, if they occured in-between our weather recording intervals... More about our weather records

Advertising

Historic Weather Conditions — Data for Previous 24 hours

 ConditionsComfort  
Time TempWeatherWind HumidityBarometerVisibility
8:00 AM
Apr 18
68 °FPartly sunny.10 mph83%29.83 "HgN/A
7:00 AM68 °FPartly sunny.8 mph83%N/AN/A
6:00 AM68 °FPartly cloudy.6 mph88%29.80 "HgN/A
5:00 AM70 °FClear.10 mph78%29.80 "Hg10 mi
4:00 AM68 °FClear.9 mph83%29.80 "Hg10 mi
3:00 AM68 °FClear.10 mph83%29.80 "Hg10 mi
2:00 AM68 °FClear.9 mph83%29.83 "Hg10 mi
1:00 AM70 °FClear.9 mph83%29.86 "Hg10 mi
12:00 AM70 °FClear.8 mph83%29.83 "Hg10 mi
11:00 PM
Apr 17
70 °FClear.12 mph83%29.83 "Hg10 mi
10:00 PM72 °FClear.13 mph78%29.83 "Hg10 mi
9:00 PM73 °FClear.16 mph74%29.83 "Hg10 mi
8:00 PM73 °FClear.16 mph74%29.80 "Hg10 mi
7:00 PM75 °FPassing clouds.18 mph65%29.80 "HgN/A
6:00 PM77 °FPassing clouds.20 mph61%29.77 "HgN/A
5:00 PM82 °FPassing clouds.23 mph51%29.77 "HgN/A
4:00 PM84 °FScattered clouds.22 mph48%29.77 "HgN/A
3:00 PM88 °FPassing clouds.21 mph46%29.77 "HgN/A
2:00 PM88 °FPassing clouds.20 mph46%29.80 "HgN/A
1:00 PM88 °FSunny.16 mph46%29.83 "Hg10 mi
11:00 AM86 °FSunny.12 mph49%29.89 "Hg10 mi
10:00 AM82 °FSunny.10 mph51%29.89 "Hg10 mi
9:00 AM77 °FSunny.10 mph61%29.92 "Hg10 mi
Weather by CustomWeather, © 2014

See weather overview